Time,TemperatureF,DewpointF,PressureIn,WindDirection,WindDirectionDegrees,WindSpeedMPH,WindSpeedGustMPH,Humidity,HourlyPrecipIn,Conditions,Clouds,dailyrainin,SoftwareType,DateUTC
2013-10-25 00:05:00,43.4,37.0,30.35,NNW,339,6.0,-999.0,79,-99.99,,,0.00,weatherlink.com 1.10,2013-10-25 05:05:00,
2013-10-25 00:20:00,42.8,37.0,30.36,NNW,341,2.0,-999.0,79,-99.99,,,0.00,weatherlink.com 1.10,2013-10-25 05:20:00,
2013-10-25 00:35:00,42.2,36.0,30.36,North,355,2.0,-999.0,80,-99.99,,,0.00,weatherlink.com 1.10,2013-10-25 05:35:00,
2013-10-25 00:50:00,41.9,37.0,30.37,NNE,13,4.0,-999.0,81,-99.99,,,0.00,weatherlink.com 1.10,2013-10-25 05:50:00,
2013-10-25 01:05:00,41.6,36.0,30.38,NE,45,7.0,-999.0,80,-99.99,,,0.00,weatherlink.com 1.10,2013-10-25 06:05:00,
2013-10-25 01:20:00,41.3,35.0,30.39,NE,40,7.0,-999.0,77,-99.99,,,0.00,weatherlink.com 1.10,2013-10-25 06:20:00,
2013-10-25 01:35:00,40.7,33.0,30.39,NNE,32,6.0,-999.0,73,-99.99,,,0.00,weatherlink.com 1.10,2013-10-25 06:35:00,
2013-10-25 01:50:00,40.2,32.0,30.39,NNE,24,3.0,-999.0,72,-99.99,,,0.00,weatherlink.com 1.10,2013-10-25 06:50:00,
2013-10-25 02:05:00,39.6,31.0,30.40,North,5,3.0,-999.0,72,-99.99,,,0.00,weatherlink.com 1.10,2013-10-25 07:05:00,
2013-10-25 02:20:00,39.1,31.0,30.40,North,355,3.0,-999.0,72,-99.99,,,0.00,weatherlink.com 1.10,2013-10-25 07:20:00,
2013-10-25 02:35:00,38.7,31.0,30.40,NW,320,1.0,-999.0,73,-99.99,,,0.00,weatherlink.com 1.10,2013-10-25 07:35:00,
2013-10-25 02:50:00,38.4,31.0,30.41,NNE,21,4.0,-999.0,74,-99.99,,,0.00,weatherlink.com 1.10,2013-10-25 07:50:00,
2013-10-25 03:05:00,38.0,30.0,30.41,North,360,0.0,-999.0,74,-99.99,,,0.00,weatherlink.com 1.10,2013-10-25 08:05:00,
2013-10-25 03:20:00,37.8,31.0,30.41,North,360,2.0,-999.0,75,-99.99,,,0.00,weatherlink.com 1.10,2013-10-25 08:20:00,
2013-10-25 03:35:00,37.6,31.0,30.41,North,5,3.0,-999.0,77,-99.99,,,0.00,weatherlink.com 1.10,2013-10-25 08:35:00,
2013-10-25 03:50:00,37.3,31.0,30.41,NNW,338,4.0,-999.0,78,-99.99,,,0.00,weatherlink.com 1.10,2013-10-25 08:50:00,
2013-10-25 04:06:00,36.9,31.0,30.42,North,350,0.0,-999.0,79,-99.99,,,0.00,weatherlink.com 1.10,2013-10-25 09:06:00,
2013-10-25 04:21:00,36.7,31.0,30.43,North,350,1.0,-999.0,79,-99.99,,,0.00,weatherlink.com 1.10,2013-10-25 09:21:00,
2013-10-25 04:36:00,36.8,31.0,30.43,NNE,15,0.0,-999.0,79,-99.99,,,0.00,weatherlink.com 1.10,2013-10-25 09:36:00,
2013-10-25 04:51:00,36.6,30.0,30.43,North,5,1.0,-999.0,78,-99.99,,,0.00,weatherlink.com 1.10,2013-10-25 09:51:00,
2013-10-25 05:06:00,36.4,30.0,30.44,North,355,3.0,-999.0,78,-99.99,,,0.00,weatherlink.com 1.10,2013-10-25 10:06:00,
2013-10-25 05:21:00,36.0,30.0,30.44,North,355,0.0,-999.0,78,-99.99,,,0.00,weatherlink.com 1.10,2013-10-25 10:21:00,
2013-10-25 05:36:00,35.6,29.0,30.45,North,355,0.0,-999.0,77,-99.99,,,0.00,weatherlink.com 1.10,2013-10-25 10:36:00,
2013-10-25 05:51:00,35.3,29.0,30.45,North,355,0.0,-999.0,78,-99.99,,,0.00,weatherlink.com 1.10,2013-10-25 10:51:00,
2013-10-25 06:06:00,35.2,29.0,30.46,North,355,0.0,-999.0,79,-99.99,,,0.00,weatherlink.com 1.10,2013-10-25 11:06:00,
2013-10-25 06:21:00,34.7,29.0,30.46,NNW,347,2.0,-999.0,79,-99.99,,,0.00,weatherlink.com 1.10,2013-10-25 11:21:00,
2013-10-25 06:36:00,34.7,29.0,30.46,North,355,2.0,-999.0,78,-99.99,,,0.00,weatherlink.com 1.10,2013-10-25 11:36:00,
2013-10-25 06:51:00,34.3,28.0,30.47,NNW,346,2.0,-999.0,78,-99.99,,,0.00,weatherlink.com 1.10,2013-10-25 11:51:00,
2013-10-25 07:06:00,33.8,28.0,30.47,NNW,346,2.0,-999.0,78,-99.99,,,0.00,weatherlink.com 1.10,2013-10-25 12:06:00,
2013-10-25 07:21:00,34.3,28.0,30.48,North,355,0.0,-999.0,78,-99.99,,,0.00,weatherlink.com 1.10,2013-10-25 12:21:00,
2013-10-25 07:36:00,35.0,29.0,30.49,NNE,22,0.0,-999.0,78,-99.99,,,0.00,weatherlink.com 1.10,2013-10-25 12:36:00,
2013-10-25 07:51:00,35.8,29.0,30.49,North,10,2.0,-999.0,75,-99.99,,,0.00,weatherlink.com 1.10,2013-10-25 12:51:00,
2013-10-25 08:06:00,36.4,29.0,30.49,North,355,3.0,-999.0,73,-99.99,,,0.00,weatherlink.com 1.10,2013-10-25 13:06:00,
2013-10-25 08:21:00,36.7,29.0,30.50,North,360,4.0,-999.0,73,-99.99,,,0.00,weatherlink.com 1.10,2013-10-25 13:21:00,
2013-10-25 08:36:00,37.4,29.0,30.51,North,360,7.0,-999.0,73,-99.99,,,0.00,weatherlink.com 1.10,2013-10-25 13:36:00,
2013-10-25 08:51:00,38.5,29.0,30.52,North,5,7.0,-999.0,68,-99.99,,,0.00,weatherlink.com 1.10,2013-10-25 13:51:00,
2013-10-25 09:06:00,39.5,29.0,30.52,ENE,68,11.0,-999.0,67,-99.99,,,0.00,weatherlink.com 1.10,2013-10-25 14:06:00,
2013-10-25 09:21:00,40.2,29.0,30.52,NE,43,7.0,-999.0,65,-99.99,,,0.00,weatherlink.com 1.10,2013-10-25 14:21:00,
2013-10-25 09:36:00,40.6,29.0,30.52,ENE,57,12.0,-999.0,64,-99.99,,,0.00,weatherlink.com 1.10,2013-10-25 14:36:00,
2013-10-25 09:51:00,41.1,29.0,30.52,NNW,328,7.0,-999.0,63,-99.99,,,0.00,weatherlink.com 1.10,2013-10-25 14:51:00,
2013-10-25 10:06:00,41.3,29.0,30.52,NE,39,4.0,-999.0,63,-99.99,,,0.00,weatherlink.com 1.10,2013-10-25 15:06:00,
2013-10-25 10:21:00,42.4,29.0,30.52,ENE,57,4.0,-999.0,60,-99.99,,,0.00,weatherlink.com 1.10,2013-10-25 15:21:00,
2013-10-25 10:36:00,42.9,30.0,30.52,NE,38,4.0,-999.0,60,-99.99,,,0.00,weatherlink.com 1.10,2013-10-25 15:36:00,
2013-10-25 10:51:00,43.4,29.0,30.52,NNE,24,5.0,-999.0,57,-99.99,,,0.00,weatherlink.com 1.10,2013-10-25 15:51:00,
2013-10-25 11:06:00,44.3,30.0,30.52,East,84,8.0,-999.0,57,-99.99,,,0.00,weatherlink.com 1.10,2013-10-25 16:06:00,
2013-10-25 11:21:00,44.5,29.0,30.51,NE,54,3.0,-999.0,55,-99.99,,,0.00,weatherlink.com 1.10,2013-10-25 16:21:00,
2013-10-25 11:36:00,44.9,29.0,30.51,ENE,60,5.0,-999.0,54,-99.99,,,0.00,weatherlink.com 1.10,2013-10-25 16:36:00,
2013-10-25 11:51:00,46.2,30.0,30.51,NE,36,7.0,-999.0,54,-99.99,,,0.00,weatherlink.com 1.10,2013-10-25 16:51:00,
2013-10-25 12:07:00,47.2,31.0,30.50,NE,34,7.0,-999.0,54,-99.99,,,0.00,weatherlink.com 1.10,2013-10-25 17:07:00,
2013-10-25 12:22:00,47.4,31.0,30.50,NW,322,4.0,-999.0,54,-99.99,,,0.00,weatherlink.com 1.10,2013-10-25 17:22:00,
2013-10-25 12:37:00,47.4,31.0,30.49,North,11,2.0,-999.0,53,-99.99,,,0.00,weatherlink.com 1.10,2013-10-25 17:37:00,
2013-10-25 12:52:00,48.0,31.0,30.48,NW,309,8.0,-999.0,53,-99.99,,,0.00,weatherlink.com 1.10,2013-10-25 17:52:00,
2013-10-25 13:07:00,48.2,31.0,30.48,NNW,329,8.0,-999.0,51,-99.99,,,0.00,weatherlink.com 1.10,2013-10-25 18:07:00,
2013-10-25 13:22:00,48.9,30.0,30.47,NNW,348,6.0,-999.0,48,-99.99,,,0.00,weatherlink.com 1.10,2013-10-25 18:22:00,
2013-10-25 13:37:00,49.3,29.0,30.47,North,355,8.0,-999.0,45,-99.99,,,0.00,weatherlink.com 1.10,2013-10-25 18:37:00,
2013-10-25 13:52:00,49.1,27.0,30.46,NE,47,11.0,-999.0,42,-99.99,,,0.00,weatherlink.com 1.10,2013-10-25 18:52:00,
2013-10-25 14:07:00,49.7,28.0,30.46,NNE,23,11.0,-999.0,43,-99.99,,,0.00,weatherlink.com 1.10,2013-10-25 19:07:00,
2013-10-25 14:22:00,49.8,26.0,30.45,NNE,33,5.0,-999.0,40,-99.99,,,0.00,weatherlink.com 1.10,2013-10-25 19:22:00,
2013-10-25 14:37:00,50.4,27.0,30.45,NNE,28,8.0,-999.0,40,-99.99,,,0.00,weatherlink.com 1.10,2013-10-25 19:37:00,
2013-10-25 14:52:00,50.3,28.0,30.44,NE,44,6.0,-999.0,42,-99.99,,,0.00,weatherlink.com 1.10,2013-10-25 19:52:00,
2013-10-25 15:07:00,50.7,30.0,30.44,NW,326,8.0,-999.0,45,-99.99,,,0.00,weatherlink.com 1.10,2013-10-25 20:07:00,
2013-10-25 15:22:00,50.4,30.0,30.44,NNW,331,1.0,-999.0,45,-99.99,,,0.00,weatherlink.com 1.10,2013-10-25 20:22:00,
2013-10-25 15:37:00,50.7,30.0,30.44,NW,317,4.0,-999.0,45,-99.99,,,0.00,weatherlink.com 1.10,2013-10-25 20:37:00,
2013-10-25 15:52:00,51.1,30.0,30.43,NE,40,1.0,-999.0,45,-99.99,,,0.00,weatherlink.com 1.10,2013-10-25 20:52:00,
2013-10-25 16:07:00,51.6,30.0,30.43,NNW,344,4.0,-999.0,44,-99.99,,,0.00,weatherlink.com 1.10,2013-10-25 21:07:00,
2013-10-25 16:22:00,51.2,31.0,30.43,NW,323,0.0,-999.0,46,-99.99,,,0.00,weatherlink.com 1.10,2013-10-25 21:22:00,
2013-10-25 16:37:00,51.6,30.0,30.43,North,355,4.0,-999.0,43,-99.99,,,0.00,weatherlink.com 1.10,2013-10-25 21:37:00,
2013-10-25 16:52:00,51.4,30.0,30.42,WNW,300,0.0,-999.0,44,-99.99,,,0.00,weatherlink.com 1.10,2013-10-25 21:52:00,
2013-10-25 17:07:00,51.4,31.0,30.42,NNW,328,0.0,-999.0,45,-99.99,,,0.00,weatherlink.com 1.10,2013-10-25 22:07:00,
2013-10-25 17:22:00,51.1,30.0,30.42,NNW,328,0.0,-999.0,45,-99.99,,,0.00,weatherlink.com 1.10,2013-10-25 22:22:00,
2013-10-25 17:37:00,51.1,30.0,30.42,NNW,328,0.0,-999.0,45,-99.99,,,0.00,weatherlink.com 1.10,2013-10-25 22:37:00,
2013-10-25 17:52:00,49.9,31.0,30.42,NNW,328,0.0,-999.0,49,-99.99,,,0.00,weatherlink.com 1.10,2013-10-25 22:52:00,
2013-10-25 18:07:00,48.6,31.0,30.42,NNW,328,0.0,-999.0,50,-99.99,,,0.00,weatherlink.com 1.10,2013-10-25 23:07:00,
2013-10-25 18:22:00,47.8,31.0,30.42,NW,306,0.0,-999.0,53,-99.99,,,0.00,weatherlink.com 1.10,2013-10-25 23:22:00,
2013-10-25 18:37:00,47.2,31.0,30.42,NW,305,0.0,-999.0,53,-99.99,,,0.00,weatherlink.com 1.10,2013-10-25 23:37:00,
2013-10-25 18:52:00,46.2,31.0,30.42,NW,306,1.0,-999.0,56,-99.99,,,0.00,weatherlink.com 1.10,2013-10-25 23:52:00,
2013-10-25 19:07:00,45.2,32.0,30.42,NW,306,0.0,-999.0,60,-99.99,,,0.00,weatherlink.com 1.10,2013-10-26 00:07:00,
2013-10-25 19:22:00,43.8,32.0,30.42,NW,307,0.0,-999.0,64,-99.99,,,0.00,weatherlink.com 1.10,2013-10-26 00:22:00,
2013-10-25 19:37:00,42.9,33.0,30.43,NW,307,0.0,-999.0,67,-99.99,,,0.00,weatherlink.com 1.10,2013-10-26 00:37:00,
2013-10-25 19:52:00,42.5,33.0,30.43,NW,307,0.0,-999.0,68,-99.99,,,0.00,weatherlink.com 1.10,2013-10-26 00:52:00,
2013-10-25 20:07:00,42.1,32.0,30.43,NW,307,0.0,-999.0,68,-99.99,,,0.00,weatherlink.com 1.10,2013-10-26 01:07:00,
2013-10-25 20:22:00,42.2,32.0,30.43,NW,307,0.0,-999.0,68,-99.99,,,0.00,weatherlink.com 1.10,2013-10-26 01:22:00,
2013-10-25 20:37:00,41.7,32.0,30.43,NW,307,0.0,-999.0,68,-99.99,,,0.00,weatherlink.com 1.10,2013-10-26 01:37:00,
2013-10-25 20:52:00,41.4,32.0,30.43,NW,307,0.0,-999.0,69,-99.99,,,0.00,weatherlink.com 1.10,2013-10-26 01:52:00,
2013-10-25 21:07:00,40.4,31.0,30.43,NW,307,0.0,-999.0,70,-99.99,,,0.00,weatherlink.com 1.10,2013-10-26 02:07:00,
2013-10-25 21:22:00,40.7,31.0,30.43,NW,307,0.0,-999.0,68,-99.99,,,0.00,weatherlink.com 1.10,2013-10-26 02:22:00,
2013-10-25 21:37:00,40.1,31.0,30.44,NW,307,0.0,-999.0,71,-99.99,,,0.00,weatherlink.com 1.10,2013-10-26 02:37:00,
2013-10-25 21:52:00,40.4,32.0,30.44,NW,307,0.0,-999.0,71,-99.99,,,0.00,weatherlink.com 1.10,2013-10-26 02:52:00,
2013-10-25 22:07:00,39.8,32.0,30.44,NW,307,0.0,-999.0,75,-99.99,,,0.00,weatherlink.com 1.10,2013-10-26 03:07:00,
2013-10-25 22:22:00,38.8,33.0,30.44,NW,307,0.0,-999.0,80,-99.99,,,0.00,weatherlink.com 1.10,2013-10-26 03:22:00,
2013-10-25 22:37:00,38.1,32.0,30.44,NW,307,0.0,-999.0,79,-99.99,,,0.00,weatherlink.com 1.10,2013-10-26 03:37:00,
2013-10-25 22:52:00,37.1,32.0,30.43,NW,307,0.0,-999.0,81,-99.99,,,0.00,weatherlink.com 1.10,2013-10-26 03:52:00,
2013-10-25 23:07:00,37.1,32.0,30.43,NW,307,0.0,-999.0,82,-99.99,,,0.00,weatherlink.com 1.10,2013-10-26 04:07:00,
2013-10-25 23:22:00,36.9,32.0,30.43,NW,307,0.0,-999.0,81,-99.99,,,0.00,weatherlink.com 1.10,2013-10-26 04:22:00,
2013-10-25 23:37:00,36.5,32.0,30.42,NW,307,0.0,-999.0,82,-99.99,,,0.00,weatherlink.com 1.10,2013-10-26 04:37:00,
2013-10-25 23:52:00,36.0,31.0,30.42,NW,307,2.0,-999.0,83,-99.99,,,0.00,weatherlink.com 1.10,2013-10-26 04:52:00,